Regional Weather Roundup
Issued by NWS Sterling, VA

Home | Current Version | Previous Version | Graphics & Text | Print | Product List | Glossary On
Versions: 1 2 3 4 5 6 7 8 9 10 11 12 13 14 15 16 17 18 19 20 21 22 23 24 25 26 27 28 29 30 31 32 33 34 35 36 37 38 39 40 41 42 43 44 45 46 47 48 49 50
000
ASUS41 KLWX 271810
RWRLWX

REGIONAL WEATHER ROUNDUP
NATIONAL WEATHER SERVICE BALTIMORE MD/WASHINGTON DC
200 PM EDT WED MAY 27 2015

Note: "FAIR" indicates few or no clouds below 12,000 feet
with no significant weather and/or obstructions to visibility.
 TC=TEMPERATURE CELSIUS

 * =Non NWS site. Station does not report precipitation (e.g. rain,
    snow, etc.), thunder, or fog.

DCZ001-MDZ009-015-VAZ040>042-051-053>054-271900-
WASHINGTON METRO

CITY           SKY/WX    TMP DP  RH WIND       PRES   REMARKS
WASHINGTON NAT PTSUNNY   89  67  47 S15       30.13F HX  92
DULLES         PTSUNNY   86  68  54 SW9       30.13F
ANDREWS AFB    MOSUNNY   86  68  54 SW14      30.13F
FT BELVOIR     MOSUNNY   88  67  49 S12       30.13F HX  91
QUANTICO       PTSUNNY   87  65  47 SW12      30.14F
LEESBURG*      CLOUDY    88  70  55 S10G18    30.14F HX  92
MANASSAS*      PTSUNNY   86  68  54 SW9       30.14F
GAITHERSBURG*  CLOUDY    82  66  57 SW8       30.18S

$$

MDZ006>007-011-014-271900-
BALTIMORE METRO

CITY           SKY/WX    TMP DP  RH WIND       PRES   REMARKS
BWI AIRPORT    PTSUNNY   86  68  54 SW8       30.12F
MD SCIENCE CTR   N/A     81  70  69 MISG      30.13F
MARTIN STATE   MOSUNNY   82  73  74 SE13      30.15F
ANNAPOLIS      SUNNY     81  69  67 S12       30.13F

$$

MDZ012-015-019>023-271900-
MARYLAND EASTERN SHORE

CITY           SKY/WX    TMP DP  RH WIND       PRES   REMARKS
OCEAN CITY     SUNNY     73  64  73 S13G25    30.21F
SALISBURY      MOSUNNY   84  68  58 S13       30.18F
EASTON*        MOSUNNY   86  72  62 SW14      30.18F HX  92

$$

MDZ017>025-271900-
SOUTHERN MARYLAND

CITY           SKY/WX    TMP DP  RH WIND       PRES   REMARKS
PATUXENT RIVER PTSUNNY   86  68  54 S15G21    30.15F
ST INIGOES     SUNNY     85  69  58 S12       30.15F
LEONARDTOWN*   NOT AVBL

$$

MDZ003>005-271900-
NORTH CENTRAL MARYLAND

CITY           SKY/WX    TMP DP  RH WIND       PRES   REMARKS
FREDERICK*     CLOUDY    73  64  73 NW14G28   30.20R
HAGERSTOWN APT LGT RAIN  70  68  93 SE6       30.16F
WESTMINSTER*   NOT AVBL

$$

MDZ501>502-271900-
WESTERN MARYLAND

CITY           SKY/WX    TMP DP  RH WIND       PRES   REMARKS
OAKLAND*       NOT AVBL
CUMBERLAND*    NOT AVBL

$$

VAZ025>031-271900-
SHENANDOAH VALLEY

CITY           SKY/WX    TMP DP  RH WIND       PRES   REMARKS
WINCHESTER*    LGT RAIN  75  63  64 SW5       30.17F
FRONT ROYAL*   CLOUDY    68  66  94 SE6       30.17R
LURAY*         LGT RAIN  79  63  57 CALM      30.18F
NEW MARKET*    MOCLDY    77  65  65 CALM      30.16F
STAUNTON*      PTSUNNY   84  65  53 SE5       30.20F
WAYNESBORO*    FAIR      80  65  60 W7        30.21F

$$

WVZ021-048>050-054>055-271900-
EASTERN WEST VIRGINIA PANHANDLE

CITY           SKY/WX    TMP DP  RH WIND       PRES   REMARKS
MARTINSBURG    CLOUDY    73  67  81 W6        30.16F
PETERSBURG*    MOSUNNY   80  63  57 SE5       30.16F

$$

VAZ036>039-050-271900-
CENTRAL FOOTHILLS

CITY           SKY/WX    TMP DP  RH WIND       PRES   REMARKS
CHARLOTTESVILL PTSUNNY   82  67  60 S10       30.16F
CULPEPER*      PTSUNNY   83  67  57 SW9G16    30.14F
ORANGE*        PTSUNNY   86  68  54 S9G16     30.17F
GORDONSVILLE*  FAIR      83  67  60 SW9       30.16S
WARRENTON*     CLOUDY    85  71  63 S8        30.14F HX  90

$$

VAZ055>057-271900-
NORTH AND CENTRAL PIEDMONT

CITY           SKY/WX    TMP DP  RH WIND       PRES   REMARKS
FREDERICKSBRG* PTSUNNY   89  68  49 SW12      30.14F HX  92
STAFFORD*      PTSUNNY   88  64  43 SW8       30.18F

$$

NCZ024-NYZ072-PAZ021-071-VAZ022-071-271900-
OTHER REGIONAL OBSERVATIONS

CITY           SKY/WX    TMP DP  RH WIND       PRES   REMARKS
NEW YORK CITY  SUNNY     84  67  56 CALM      30.16F
PHILADELPHIA   PTSUNNY   87  68  52 SW16      30.13F HX  90
PITTSBURGH     PTSUNNY   78  61  55 SW12      30.13F
ROANOKE        PTSUNNY   84  58  40 SW8       30.21F
RICHMOND       PTSUNNY   87  67  51 S13G23    30.17F HX  90
RALEIGH        PTSUNNY   84  67  56 SW9       30.22F

$$

ANZ530>537-271900-
MARINE OBSERVATIONS

STATION/POSITION TIME  TEMP    WIND        PRES
                       AIR SEA DIR/SP/G
                 (UTC) (F)     (DEG/KT/KT) (MB)
THOMAS PT LIGHT  1800   75 68  160/ 15/ 15 1021.0F
BALT KEY BRIDGE  1700   76     130/ 12/ 15 1020.3F
COVE POINT       1700   70     180/ 15/ 17 1022.4F
LEWISETTA        1700   82 75              1021.6F
SOLOMONS ISLAND  1700      71                N/A
PINEY POINT      1700          210/ 10/ 11   N/A

$$



USA.gov is the U.S. government's official web portal to all federal, state and local government web resources and services.